Location: Peebles
(55.6412°N, 3.1714°W)
Time: 15:42:56
(UTC+00:00)

MOZHAYETS 4 - Pass Details

Date: 17 December 2023
Orbit: 654 x 672 km, 98.3° (Epoch: 03 March)

Event Time Altitude Azimuth Distance (km) Brightness Sun altitude
Exits shadow 17:43:24 - 9° (N) 2,853 10.7 -15.7°
Reaches altitude 10° 17:45:24 10° 359° (N) 2,122 10.1 -15.9°
Maximum altitude 17:49:18 28° 302° (WNW) 1,276 9.6 -16.5°
Drops below altitude 10° 17:53:11 10° 244° (WSW) 2,106 11.6 -17.0°
Sets 17:55:39 0° 233° (SW) 3,014 12.4 -17.3°
